• In Latvia
  • List of Countries
  • For 7 days
  • Water Temperature
  • Satellite Maps
  • Weather Map
  • Weather Widgets
  • user-avatar
    Login

    Hourly Weather Eisenstadt

    Today, 20 January, Friday

    Time Temperature Precipitation Wind Pressure Humidity
    00:00 -13°C° 0 mm 0 mps 734 mmHg 96%
    01:00 -11°C° 0 mm 1 mps 735 mmHg 96%
    02:00 -12°C° 0 mm 1 mps 735 mmHg 95%
    03:00 -12°C° 0 mm 1 mps 734 mmHg 95%
    04:00 -12°C° 0 mm 1 mps 734 mmHg 95%
    05:00 -12°C° 0 mm 1 mps 734 mmHg 94%
    06:00 -12°C° 0 mm 1 mps 734 mmHg 93%
    07:00 -12°C° 0 mm 1 mps 734 mmHg 93%
    08:00 -10°C° 0 mm 1 mps 734 mmHg 89%
    09:00 -8°C° 0 mm 1 mps 735 mmHg 86%
    10:00 -6°C° 0 mm 1 mps 735 mmHg 82%
    11:00 -4°C° 0 mm 1 mps 735 mmHg 80%
    12:00 -5°C° 0 mm 2 mps 735 mmHg 78%
    13:00 -4°C° 0 mm 2 mps 735 mmHg 76%
    14:00 -5°C° 0 mm 2 mps 734 mmHg 80%
    15:00 -6°C° 0 mm 2 mps 734 mmHg 83%
    16:00 -7°C° 0 mm 2 mps 734 mmHg 86%
    17:00 -8°C° 0 mm 2 mps 734 mmHg 87%
    18:00 -9°C° 0 mm 2 mps 733 mmHg 88%
    19:00 -10°C° 0 mm 2 mps 733 mmHg 89%
    20:00 -10°C° 0 mm 2 mps 733 mmHg 88%
    21:00 -10°C° 0 mm 2 mps 733 mmHg 88%
    22:00 -10°C° 0 mm 2 mps 733 mmHg 88%
    23:00 -10°C° 0 mm 2 mps 733 mmHg 87%

    Tomorrow, 21 January, Saturday

    Time Temperature Precipitation Wind Pressure Humidity
    00:00 -10°C° 0 mm 2 mps 733 mmHg 87%
    01:00 -12°C° 0 mm 2 mps 733 mmHg 86%
    02:00 -12°C° 0 mm 2 mps 733 mmHg 86%
    03:00 -12°C° 0 mm 2 mps 732 mmHg 86%
    04:00 -12°C° 0 mm 2 mps 732 mmHg 85%
    05:00 -12°C° 0 mm 2 mps 732 mmHg 85%
    06:00 -12°C° 0 mm 2 mps 732 mmHg 85%
    07:00 -12°C° 0 mm 2 mps 732 mmHg 85%
    08:00 -9°C° 0 mm 2 mps 732 mmHg 83%
    09:00 -8°C° 0 mm 2 mps 733 mmHg 81%
    10:00 -6°C° 0 mm 2 mps 733 mmHg 78%
    11:00 -5°C° 0 mm 2 mps 733 mmHg 77%
    12:00 -4°C° 0 mm 2 mps 733 mmHg 76%
    13:00 -3°C° 0 mm 2 mps 733 mmHg 75%
    14:00 -4°C° 0 mm 2 mps 733 mmHg 78%
    15:00 -5°C° 0 mm 2 mps 732 mmHg 81%
    16:00 -6°C° 0 mm 2 mps 732 mmHg 84%
    17:00 -7°C° 0 mm 2 mps 732 mmHg 85%
    18:00 -8°C° 0 mm 2 mps 732 mmHg 86%
    19:00 -9°C° 0 mm 2 mps 732 mmHg 87%
    20:00 -9°C° 0 mm 2 mps 732 mmHg 86%
    21:00 -9°C° 0 mm 2 mps 733 mmHg 85%
    22:00 -9°C° 0 mm 2 mps 733 mmHg 84%
    23:00 -9°C° 0 mm 2 mps 733 mmHg 84%

    Day after tomorrow, 22 January, Sunday

    Time Temperature Precipitation Wind Pressure Humidity
    00:00 -9°C° 0 mm 2 mps 733 mmHg 84%
    01:00 -9°C° 0 mm 2 mps 733 mmHg 83%
    02:00 -9°C° 0 mm 2 mps 733 mmHg 83%
    03:00 -9°C° 0 mm 2 mps 732 mmHg 83%
    04:00 -9°C° 0 mm 2 mps 732 mmHg 83%
    05:00 -9°C° 0 mm 2 mps 732 mmHg 83%
    06:00 -9°C° 0 mm 2 mps 732 mmHg 83%
    07:00 -10°C° 0 mm 3 mps 732 mmHg 83%
    08:00 -9°C° 0 mm 3 mps 732 mmHg 81%
    09:00 -8°C° 0 mm 3 mps 732 mmHg 79%
    10:00 -7°C° 0 mm 3 mps 733 mmHg 77%
    11:00 -6°C° 0 mm 3 mps 732 mmHg 76%
    12:00 -5°C° 0 mm 3 mps 732 mmHg 75%
    13:00 -4°C° 0 mm 3 mps 732 mmHg 74%
    14:00 -5°C° 0 mm 3 mps 731 mmHg 77%
    15:00 -6°C° 0 mm 3 mps 731 mmHg 80%
    16:00 -6°C° 0 mm 3 mps 730 mmHg 84%
    17:00 -7°C° 0 mm 3 mps 730 mmHg 86%
    18:00 -8°C° 0 mm 3 mps 730 mmHg 88%
    19:00 -9°C° 0 mm 3 mps 730 mmHg 90%
    20:00 -10°C° 0 mm 3 mps 730 mmHg 90%
    21:00 -10°C° 0 mm 3 mps 730 mmHg 91%
    22:00 -10°C° 0 mm 3 mps 730 mmHg 92%
    23:00 -10°C° 0 mm 3 mps 729 mmHg 93%

    23 January, Monday

    Time Temperature Precipitation Wind Pressure Humidity
    00:00 -10°C° 0 mm 3 mps 729 mmHg 93%
    01:00 -10°C° 0 mm 3 mps 729 mmHg 94%
    02:00 -12°C° 0 mm 3 mps 729 mmHg 94%
    03:00 -12°C° 0 mm 3 mps 728 mmHg 94%
    04:00 -12°C° 0 mm 2 mps 728 mmHg 95%
    05:00 -12°C° 0 mm 2 mps 728 mmHg 95%
    06:00 -12°C° 0 mm 2 mps 727 mmHg 95%
    07:00 -12°C° 0 mm 2 mps 727 mmHg 95%
    08:00 -10°C° 0 mm 2 mps 727 mmHg 93%
    09:00 -8°C° 0 mm 2 mps 728 mmHg 90%
    10:00 -6°C° 0 mm 2 mps 728 mmHg 88%
    11:00 -6°C° 0 mm 2 mps 727 mmHg 86%
    12:00 -5°C° 0 mm 2 mps 727 mmHg 85%
    13:00 -4°C° 0 mm 2 mps 726 mmHg 83%
    14:00 -3°C° 0 mm 1 mps 726 mmHg 85%
    15:00 -4°C° 0 mm 1 mps 726 mmHg 88%
    16:00 -6°C° 0 mm 1 mps 725 mmHg 90%
    17:00 -7°C° 0 mm 1 mps 725 mmHg 92%
    18:00 -8°C° 0 mm 1 mps 725 mmHg 94%
    19:00 -9°C° 0 mm 0 mps 725 mmHg 96%
    20:00 -9°C° 0 mm 0 mps 725 mmHg 96%
    21:00 -10°C° 0 mm 0 mps 725 mmHg 97%
    22:00 -11°C° 0 mm 1 mps 725 mmHg 97%
    23:00 -11°C° 0 mm 1 mps 725 mmHg 97%

    24 January, Tuesday

    Time Temperature Precipitation Wind Pressure Humidity
    00:00 -11°C° 0 mm 1 mps 724 mmHg 97%
    01:00 -11°C° 0 mm 1 mps 724 mmHg 97%
    02:00 -10°C° 0 mm 1 mps 724 mmHg 97%
    03:00 -10°C° 0 mm 2 mps 724 mmHg 97%
    04:00 -9°C° 0 mm 2 mps 724 mmHg 96%
    05:00 -10°C° 0 mm 2 mps 725 mmHg 96%
    06:00 -10°C° 0 mm 2 mps 725 mmHg 95%
    07:00 -10°C° 0 mm 2 mps 725 mmHg 95%
    08:00 -9°C° 0 mm 2 mps 726 mmHg 90%
    09:00 -9°C° 0 mm 3 mps 726 mmHg 86%
    10:00 -7°C° 0 mm 3 mps 726 mmHg 81%
    11:00 -6°C° 0 mm 3 mps 726 mmHg 79%
    12:00 -5°C° 0 mm 3 mps 726 mmHg 77%
    13:00 -5°C° 0 mm 3 mps 726 mmHg 74%
    14:00 -5°C° 0 mm 3 mps 726 mmHg 77%
    15:00 -6°C° 0 mm 3 mps 726 mmHg 79%
    16:00 -7°C° 0 mm 3 mps 726 mmHg 82%
    17:00 -7°C° 0 mm 3 mps 726 mmHg 84%
    18:00 -9°C° 0 mm 4 mps 727 mmHg 85%
    19:00 -10°C° 0 mm 4 mps 727 mmHg 87%
    20:00 -10°C° 0 mm 4 mps 727 mmHg 88%
    21:00 -10°C° 0 mm 4 mps 728 mmHg 89%
    22:00 -10°C° 0 mm 4 mps 728 mmHg 89%
    23:00 -10°C° 0 mm 4 mps 728 mmHg 90%

    25 January, Wednesday

    Time Temperature Precipitation Wind Pressure Humidity
    00:00 -10°C° 0 mm 4 mps 728 mmHg 91%
    01:00 -9°C° 0 mm 3 mps 728 mmHg 92%
    02:00 -9°C° 0 mm 3 mps 728 mmHg 92%
    03:00 -9°C° 0 mm 3 mps 728 mmHg 92%
    04:00 -9°C° 0 mm 3 mps 729 mmHg 92%
    05:00 -9°C° 0 mm 3 mps 729 mmHg 93%
    06:00 -9°C° 0 mm 3 mps 729 mmHg 93%
    07:00 -8°C° 0 mm 2 mps 729 mmHg 93%
    08:00 -8°C° 0 mm 3 mps 730 mmHg 90%
    09:00 -7°C° 0 mm 3 mps 730 mmHg 88%
    10:00 -6°C° 0 mm 3 mps 730 mmHg 85%
    11:00 -5°C° 0 mm 3 mps 730 mmHg 83%
    12:00 -4°C° 0 mm 3 mps 730 mmHg 81%
    13:00 -2°C° 0 mm 3 mps 730 mmHg 79%
    14:00 -3°C° 0 mm 2 mps 730 mmHg 82%
    15:00 -4°C° 0 mm 2 mps 729 mmHg 85%
    16:00 -5°C° 0 mm 2 mps 729 mmHg 88%
    17:00 -6°C° 0 mm 2 mps 729 mmHg 90%
    18:00 -8°C° 0 mm 2 mps 729 mmHg 92%
    19:00 -9°C° 0 mm 2 mps 729 mmHg 94%
    20:00 -9°C° 0 mm 2 mps 729 mmHg 94%
    21:00 -9°C° 0 mm 2 mps 729 mmHg 94%
    22:00 -9°C° 0 mm 1 mps 730 mmHg 94%
    23:00 -9°C° 0 mm 1 mps 729 mmHg 94%
    Show more